Back to Top

Language: 

My Weather Underground Personal Weather Station Historical Data with Graphs...

Delerius Weather Station Historical Data
Daily Summary for January 19, 2018 Units:  Both    English   Metric
« Previous Day
Next Day »
Daily Weekly Monthly Yearly Custom
  High: Low: Average:
Temperature: 41.9 °F /  5.5 °C 35.2 °F /  1.8 °C 37.2 °F /  2.9 °C
Dew Point: 36.3 °F /  2.4 °C 32.9 °F /  0.5 °C 33.9 °F /  1.1 °C
Humidity: 92 % 77 % 88 %
Wind Speed: 20.0 mph /  32.2 km/h - 10.1 mph /  16.3 km/h
Wind Gust: 31.0 mph /  49.9 km/h - -
Wind:- - West
Pressure: 29.67 in /  1004.6 hPa 29.61 in /  1002.6 hPa -
Precipitation: 0.04 in /  1.02 mm    
Historical Graphs
 
 
Tabular Data for January 19, 2018
Time Temperature Dew Point Pressure Wind Wind Speed Wind Gust Humidity Rainfall Rate (Hourly) solar Conditions
00:00 36.0 °F /  2.2 °C 33.6 °F /  0.9 °C 29.61 in /  1002.6 hPa WNW 5.0 mph /  8 km/h 7.0 mph /  11.3 km/h 91 % 0.00 in /  0 mm 0 W/m2
00:05 36.0 °F /  2.2 °C 33.6 °F /  0.9 °C 29.61 in /  1002.6 hPa WNW 1.0 mph /  1.6 km/h 3.0 mph /  4.8 km/h 91 % 0.00 in /  0 mm 0 W/m2
00:10 35.8 °F /  2.1 °C 33.4 °F /  0.8 °C 29.61 in /  1002.6 hPa WNW 2.0 mph /  3.2 km/h 6.0 mph /  9.7 km/h 91 % 0.00 in /  0 mm 0 W/m2
00:15 35.6 °F /  2 °C 33.2 °F /  0.7 °C 29.61 in /  1002.6 hPa West 3.0 mph /  4.8 km/h 6.0 mph /  9.7 km/h 91 % 0.00 in /  0 mm 0 W/m2
00:20 35.4 °F /  1.9 °C 33.1 °F /  0.6 °C 29.62 in /  1002.9 hPa West 5.0 mph /  8 km/h 11.0 mph /  17.7 km/h 91 % 0.00 in /  0 mm 0 W/m2
00:25 35.4 °F /  1.9 °C 33.1 °F /  0.6 °C 29.62 in /  1002.9 hPa West 6.0 mph /  9.7 km/h 8.0 mph /  12.9 km/h 91 % 0.00 in /  0 mm 0 W/m2
00:30 35.6 °F /  2 °C 33.5 °F /  0.8 °C 29.62 in /  1002.9 hPa West 6.0 mph /  9.7 km/h 12.0 mph /  19.3 km/h 92 % 0.00 in /  0 mm 0 W/m2
00:35 35.8 °F /  2.1 °C 33.7 °F /  0.9 °C 29.62 in /  1002.9 hPa West 7.0 mph /  11.3 km/h 12.0 mph /  19.3 km/h 92 % 0.00 in /  0 mm 0 W/m2
00:40 36.0 °F /  2.2 °C 33.9 °F /  1.1 °C 29.62 in /  1002.9 hPa WNW 9.0 mph /  14.5 km/h 15.0 mph /  24.1 km/h 92 % 0.00 in /  0 mm 0 W/m2
00:45 36.1 °F /  2.3 °C 33.8 °F /  1 °C 29.61 in /  1002.6 hPa West 9.0 mph /  14.5 km/h 12.0 mph /  19.3 km/h 91 % 0.00 in /  0 mm 0 W/m2
00:50 36.3 °F /  2.4 °C 33.9 °F /  1.1 °C 29.61 in /  1002.6 hPa WNW 7.0 mph /  11.3 km/h 11.0 mph /  17.7 km/h 91 % 0.00 in /  0 mm 0 W/m2
00:55 36.5 °F /  2.5 °C 34.1 °F /  1.2 °C 29.62 in /  1002.9 hPa West 9.0 mph /  14.5 km/h 14.0 mph /  22.5 km/h 91 % 0.00 in /  0 mm 0 W/m2
01:00 36.7 °F /  2.6 °C 34.3 °F /  1.3 °C 29.61 in /  1002.6 hPa West 8.0 mph /  12.9 km/h 13.0 mph /  20.9 km/h 91 % 0.00 in /  0 mm 0 W/m2
01:05 36.7 °F /  2.6 °C 34.0 °F /  1.1 °C 29.62 in /  1002.9 hPa WSW 5.0 mph /  8 km/h 7.0 mph /  11.3 km/h 90 % 0.00 in /  0 mm 0 W/m2
01:10 36.3 °F /  2.4 °C 33.7 °F /  0.9 °C 29.62 in /  1002.9 hPa WSW 6.0 mph /  9.7 km/h 9.0 mph /  14.5 km/h 90 % 0.00 in /  0 mm 0 W/m2
01:15 36.3 °F /  2.4 °C 33.7 °F /  0.9 °C 29.62 in /  1002.9 hPa West 5.0 mph /  8 km/h 9.0 mph /  14.5 km/h 90 % 0.00 in /  0 mm 0 W/m2
01:20 36.1 °F /  2.3 °C 33.5 °F /  0.8 °C 29.62 in /  1002.9 hPa West 8.0 mph /  12.9 km/h 11.0 mph /  17.7 km/h 90 % 0.00 in /  0 mm 0 W/m2
01:25 36.3 °F /  2.4 °C 33.9 °F /  1.1 °C 29.62 in /  1002.9 hPa West 7.0 mph /  11.3 km/h 14.0 mph /  22.5 km/h 91 % 0.00 in /  0 mm 0 W/m2
01:30 36.1 °F /  2.3 °C 33.8 °F /  1 °C 29.62 in /  1002.9 hPa West 10.0 mph /  16.1 km/h 20.0 mph /  32.2 km/h 91 % 0.00 in /  0 mm 0 W/m2
01:36 36.1 °F /  2.3 °C 33.8 °F /  1 °C 29.62 in /  1002.9 hPa WNW 9.0 mph /  14.5 km/h 15.0 mph /  24.1 km/h 91 % 0.00 in /  0 mm 0 W/m2
01:41 36.1 °F /  2.3 °C 33.8 °F /  1 °C 29.62 in /  1002.9 hPa WNW 9.0 mph /  14.5 km/h 16.0 mph /  25.7 km/h 91 % 0.00 in /  0 mm 0 W/m2
01:46 36.1 °F /  2.3 °C 33.8 °F /  1 °C 29.62 in /  1002.9 hPa West 10.0 mph /  16.1 km/h 16.0 mph /  25.7 km/h 91 % 0.00 in /  0 mm 0 W/m2
01:50 36.1 °F /  2.3 °C 33.8 °F /  1 °C 29.62 in /  1002.9 hPa West 9.0 mph /  14.5 km/h 14.0 mph /  22.5 km/h 91 % 0.00 in /  0 mm 0 W/m2
01:56 36.1 °F /  2.3 °C 33.8 °F /  1 °C 29.62 in /  1002.9 hPa WNW 12.0 mph /  19.3 km/h 18.0 mph /  29 km/h 91 % 0.00 in /  0 mm 0 W/m2
02:01 36.1 °F /  2.3 °C 33.8 °F /  1 °C 29.62 in /  1002.9 hPa West 10.0 mph /  16.1 km/h 16.0 mph /  25.7 km/h 91 % 0.00 in /  0 mm 0 W/m2
02:06 36.3 °F /  2.4 °C 33.9 °F /  1.1 °C 29.62 in /  1002.9 hPa WNW 10.0 mph /  16.1 km/h 15.0 mph /  24.1 km/h 91 % 0.00 in /  0 mm 0 W/m2
02:11 36.1 °F /  2.3 °C 33.8 °F /  1 °C 29.62 in /  1002.9 hPa WNW 10.0 mph /  16.1 km/h 16.0 mph /  25.7 km/h 91 % 0.00 in /  0 mm 0 W/m2
02:16 36.3 °F /  2.4 °C 33.9 °F /  1.1 °C 29.63 in /  1003.3 hPa WNW 12.0 mph /  19.3 km/h 18.0 mph /  29 km/h 91 % 0.00 in /  0 mm 0 W/m2
02:21 36.3 °F /  2.4 °C 33.9 °F /  1.1 °C 29.63 in /  1003.3 hPa WNW 9.0 mph /  14.5 km/h 14.0 mph /  22.5 km/h 91 % 0.00 in /  0 mm 0 W/m2
02:26 36.3 °F /  2.4 °C 33.9 °F /  1.1 °C 29.62 in /  1002.9 hPa WNW 6.0 mph /  9.7 km/h 8.0 mph /  12.9 km/h 91 % 0.00 in /  0 mm 0 W/m2
02:31 36.3 °F /  2.4 °C 33.9 °F /  1.1 °C 29.63 in /  1003.3 hPa West 4.0 mph /  6.4 km/h 13.0 mph /  20.9 km/h 91 % 0.00 in /  0 mm 0 W/m2
02:36 36.3 °F /  2.4 °C 33.9 °F /  1.1 °C 29.63 in /  1003.3 hPa WNW 8.0 mph /  12.9 km/h 13.0 mph /  20.9 km/h 91 % 0.00 in /  0 mm 0 W/m2
02:41 36.3 °F /  2.4 °C 33.9 °F /  1.1 °C 29.63 in /  1003.3 hPa WNW 8.0 mph /  12.9 km/h 15.0 mph /  24.1 km/h 91 % 0.00 in /  0 mm 0 W/m2
02:46 36.3 °F /  2.4 °C 33.9 °F /  1.1 °C 29.63 in /  1003.3 hPa West 4.0 mph /  6.4 km/h 12.0 mph /  19.3 km/h 91 % 0.00 in /  0 mm 0 W/m2
02:51 36.1 °F /  2.3 °C 33.8 °F /  1 °C 29.64 in /  1003.6 hPa West 7.0 mph /  11.3 km/h 12.0 mph /  19.3 km/h 91 % 0.00 in /  0 mm 0 W/m2
02:56 36.1 °F /  2.3 °C 33.8 °F /  1 °C 29.64 in /  1003.6 hPa WNW 3.0 mph /  4.8 km/h 6.0 mph /  9.7 km/h 91 % 0.00 in /  0 mm 0 W/m2
03:01 36.1 °F /  2.3 °C 33.5 °F /  0.8 °C 29.64 in /  1003.6 hPa West 1.0 mph /  1.6 km/h 2.0 mph /  3.2 km/h 90 % 0.00 in /  0 mm 0 W/m2
03:06 36.0 °F /  2.2 °C 33.3 °F /  0.7 °C 29.64 in /  1003.6 hPa West 1.0 mph /  1.6 km/h 5.0 mph /  8 km/h 90 % 0.00 in /  0 mm 0 W/m2
03:11 35.8 °F /  2.1 °C 33.1 °F /  0.6 °C 29.64 in /  1003.6 hPa WNW 2.0 mph /  3.2 km/h 5.0 mph /  8 km/h 90 % 0.00 in /  0 mm 0 W/m2
03:16 35.8 °F /  2.1 °C 33.4 °F /  0.8 °C 29.64 in /  1003.6 hPa WSW 5.0 mph /  8 km/h 10.0 mph /  16.1 km/h 91 % 0.00 in /  0 mm 0 W/m2
03:21 36.0 °F /  2.2 °C 33.6 °F /  0.9 °C 29.64 in /  1003.6 hPa WSW 2.0 mph /  3.2 km/h 6.0 mph /  9.7 km/h 91 % 0.00 in /  0 mm 0 W/m2
03:26 35.8 °F /  2.1 °C 33.4 °F /  0.8 °C 29.64 in /  1003.6 hPa WNW 6.0 mph /  9.7 km/h 10.0 mph /  16.1 km/h 91 % 0.00 in /  0 mm 0 W/m2
03:31 35.8 °F /  2.1 °C 33.4 °F /  0.8 °C 29.64 in /  1003.6 hPa West 5.0 mph /  8 km/h 10.0 mph /  16.1 km/h 91 % 0.00 in /  0 mm 0 W/m2
03:36 35.8 °F /  2.1 °C 33.4 °F /  0.8 °C 29.64 in /  1003.6 hPa West 6.0 mph /  9.7 km/h 12.0 mph /  19.3 km/h 91 % 0.00 in /  0 mm 0 W/m2
03:41 35.8 °F /  2.1 °C 33.4 °F /  0.8 °C 29.64 in /  1003.6 hPa West 8.0 mph /  12.9 km/h 12.0 mph /  19.3 km/h 91 % 0.00 in /  0 mm 0 W/m2
03:46 36.0 °F /  2.2 °C 33.6 °F /  0.9 °C 29.64 in /  1003.6 hPa West 10.0 mph /  16.1 km/h 18.0 mph /  29 km/h 91 % 0.00 in /  0 mm 0 W/m2
03:51 36.0 °F /  2.2 °C 33.6 °F /  0.9 °C 29.63 in /  1003.3 hPa West 8.0 mph /  12.9 km/h 13.0 mph /  20.9 km/h 91 % 0.00 in /  0 mm 0 W/m2
03:56 36.0 °F /  2.2 °C 33.6 °F /  0.9 °C 29.64 in /  1003.6 hPa West 7.0 mph /  11.3 km/h 12.0 mph /  19.3 km/h 91 % 0.00 in /  0 mm 0 W/m2
04:01 36.0 °F /  2.2 °C 33.6 °F /  0.9 °C 29.64 in /  1003.6 hPa West 9.0 mph /  14.5 km/h 14.0 mph /  22.5 km/h 91 % 0.00 in /  0 mm 0 W/m2
04:06 36.0 °F /  2.2 °C 33.6 °F /  0.9 °C 29.64 in /  1003.6 hPa West 9.0 mph /  14.5 km/h 15.0 mph /  24.1 km/h 91 % 0.00 in /  0 mm 0 W/m2
04:12 36.0 °F /  2.2 °C 33.3 °F /  0.7 °C 29.64 in /  1003.6 hPa West 9.0 mph /  14.5 km/h 13.0 mph /  20.9 km/h 90 % 0.00 in /  0 mm 0 W/m2
04:17 36.1 °F /  2.3 °C 33.5 °F /  0.8 °C 29.64 in /  1003.6 hPa West 8.0 mph /  12.9 km/h 12.0 mph /  19.3 km/h 90 % 0.00 in /  0 mm 0 W/m2
04:22 36.1 °F /  2.3 °C 33.5 °F /  0.8 °C 29.64 in /  1003.6 hPa West 8.0 mph /  12.9 km/h 15.0 mph /  24.1 km/h 90 % 0.00 in /  0 mm 0 W/m2
04:27 36.1 °F /  2.3 °C 33.5 °F /  0.8 °C 29.64 in /  1003.6 hPa West 10.0 mph /  16.1 km/h 19.0 mph /  30.6 km/h 90 % 0.00 in /  0 mm 0 W/m2
04:32 36.3 °F /  2.4 °C 33.7 °F /  0.9 °C 29.64 in /  1003.6 hPa West 8.0 mph /  12.9 km/h 11.0 mph /  17.7 km/h 90 % 0.00 in /  0 mm 0 W/m2
04:37 36.3 °F /  2.4 °C 33.7 °F /  0.9 °C 29.64 in /  1003.6 hPa West 8.0 mph /  12.9 km/h 13.0 mph /  20.9 km/h 90 % 0.00 in /  0 mm 0 W/m2
04:42 36.3 °F /  2.4 °C 33.7 °F /  0.9 °C 29.64 in /  1003.6 hPa West 6.0 mph /  9.7 km/h 9.0 mph /  14.5 km/h 90 % 0.00 in /  0 mm 0 W/m2
04:47 36.1 °F /  2.3 °C 33.5 °F /  0.8 °C 29.64 in /  1003.6 hPa WSW 9.0 mph /  14.5 km/h 13.0 mph /  20.9 km/h 90 % 0.00 in /  0 mm 0 W/m2
04:52 36.1 °F /  2.3 °C 33.5 °F /  0.8 °C 29.64 in /  1003.6 hPa West 7.0 mph /  11.3 km/h 13.0 mph /  20.9 km/h 90 % 0.00 in /  0 mm 0 W/m2
04:57 36.0 °F /  2.2 °C 33.3 °F /  0.7 °C 29.64 in /  1003.6 hPa West 7.0 mph /  11.3 km/h 14.0 mph /  22.5 km/h 90 % 0.00 in /  0 mm 0 W/m2
05:02 35.8 °F /  2.1 °C 33.1 °F /  0.6 °C 29.64 in /  1003.6 hPa West 10.0 mph /  16.1 km/h 15.0 mph /  24.1 km/h 90 % 0.00 in /  0 mm 0 W/m2
05:07 35.6 °F /  2 °C 33.0 °F /  0.6 °C 29.64 in /  1003.6 hPa West 9.0 mph /  14.5 km/h 12.0 mph /  19.3 km/h 90 % 0.00 in /  0 mm 0 W/m2
05:12 35.4 °F /  1.9 °C 33.1 °F /  0.6 °C 29.64 in /  1003.6 hPa West 9.0 mph /  14.5 km/h 15.0 mph /  24.1 km/h 91 % 0.00 in /  0 mm 0 W/m2
05:17 35.6 °F /  2 °C 33.2 °F /  0.7 °C 29.64 in /  1003.6 hPa West 8.0 mph /  12.9 km/h 14.0 mph /  22.5 km/h 91 % 0.00 in /  0 mm 0 W/m2
05:22 35.4 °F /  1.9 °C 33.1 °F /  0.6 °C 29.64 in /  1003.6 hPa West 10.0 mph /  16.1 km/h 16.0 mph /  25.7 km/h 91 % 0.00 in /  0 mm 0 W/m2
05:27 35.6 °F /  2 °C 33.2 °F /  0.7 °C 29.64 in /  1003.6 hPa West 10.0 mph /  16.1 km/h 15.0 mph /  24.1 km/h 91 % 0.00 in /  0 mm 0 W/m2
05:32 35.6 °F /  2 °C 33.2 °F /  0.7 °C 29.65 in /  1003.9 hPa WNW 11.0 mph /  17.7 km/h 15.0 mph /  24.1 km/h 91 % 0.00 in /  0 mm 0 W/m2
05:37 35.8 °F /  2.1 °C 33.4 °F /  0.8 °C 29.64 in /  1003.6 hPa West 14.0 mph /  22.5 km/h 22.0 mph /  35.4 km/h 91 % 0.00 in /  0 mm 0 W/m2
05:42 35.8 °F /  2.1 °C 33.4 °F /  0.8 °C 29.64 in /  1003.6 hPa West 12.0 mph /  19.3 km/h 18.0 mph /  29 km/h 91 % 0.00 in /  0 mm 0 W/m2
05:47 35.4 °F /  1.9 °C 33.1 °F /  0.6 °C 29.64 in /  1003.6 hPa West 9.0 mph /  14.5 km/h 13.0 mph /  20.9 km/h 91 % 0.00 in /  0 mm 0 W/m2
05:52 35.4 °F /  1.9 °C 33.3 °F /  0.7 °C 29.64 in /  1003.6 hPa West 11.0 mph /  17.7 km/h 18.0 mph /  29 km/h 92 % 0.00 in /  0 mm 0 W/m2
05:57 35.4 °F /  1.9 °C 33.3 °F /  0.7 °C 29.64 in /  1003.6 hPa West 14.0 mph /  22.5 km/h 21.0 mph /  33.8 km/h 92 % 0.00 in /  0 mm 0 W/m2
06:02 35.4 °F /  1.9 °C 33.3 °F /  0.7 °C 29.64 in /  1003.6 hPa West 13.0 mph /  20.9 km/h 21.0 mph /  33.8 km/h 92 % 0.00 in /  0 mm 0 W/m2
06:07 35.4 °F /  1.9 °C 33.3 °F /  0.7 °C 29.64 in /  1003.6 hPa West 11.0 mph /  17.7 km/h 16.0 mph /  25.7 km/h 92 % 0.00 in /  0 mm 0 W/m2
06:12 35.2 °F /  1.8 °C 32.9 °F /  0.5 °C 29.65 in /  1003.9 hPa West 10.0 mph /  16.1 km/h 15.0 mph /  24.1 km/h 91 % 0.00 in /  0 mm 0 W/m2
06:17 35.2 °F /  1.8 °C 33.1 °F /  0.6 °C 29.65 in /  1003.9 hPa West 10.0 mph /  16.1 km/h 14.0 mph /  22.5 km/h 92 % 0.00 in /  0 mm 0 W/m2
06:22 35.2 °F /  1.8 °C 33.1 °F /  0.6 °C 29.65 in /  1003.9 hPa West 10.0 mph /  16.1 km/h 15.0 mph /  24.1 km/h 92 % 0.00 in /  0 mm 0 W/m2
06:27 35.2 °F /  1.8 °C 33.1 °F /  0.6 °C 29.65 in /  1003.9 hPa West 10.0 mph /  16.1 km/h 20.0 mph /  32.2 km/h 92 % 0.00 in /  0 mm 0 W/m2
06:32 35.2 °F /  1.8 °C 32.9 °F /  0.5 °C 29.65 in /  1003.9 hPa West 8.0 mph /  12.9 km/h 13.0 mph /  20.9 km/h 91 % 0.00 in /  0 mm 0 W/m2
06:37 35.4 °F /  1.9 °C 33.1 °F /  0.6 °C 29.65 in /  1003.9 hPa West 11.0 mph /  17.7 km/h 15.0 mph /  24.1 km/h 91 % 0.00 in /  0 mm 0 W/m2
06:42 35.4 °F /  1.9 °C 33.1 °F /  0.6 °C 29.65 in /  1003.9 hPa West 11.0 mph /  17.7 km/h 18.0 mph /  29 km/h 91 % 0.01 in /  0.25 mm 0 W/m2
06:47 35.2 °F /  1.8 °C 32.9 °F /  0.5 °C 29.65 in /  1003.9 hPa West 9.0 mph /  14.5 km/h 14.0 mph /  22.5 km/h 91 % 0.01 in /  0.25 mm 0 W/m2
06:52 35.2 °F /  1.8 °C 33.1 °F /  0.6 °C 29.65 in /  1003.9 hPa West 10.0 mph /  16.1 km/h 14.0 mph /  22.5 km/h 92 % 0.01 in /  0.25 mm 0 W/m2
06:57 35.2 °F /  1.8 °C 33.1 °F /  0.6 °C 29.65 in /  1003.9 hPa West 10.0 mph /  16.1 km/h 14.0 mph /  22.5 km/h 92 % 0.01 in /  0.25 mm 0 W/m2
07:02 35.2 °F /  1.8 °C 33.1 °F /  0.6 °C 29.65 in /  1003.9 hPa WSW 11.0 mph /  17.7 km/h 16.0 mph /  25.7 km/h 92 % 0.01 in /  0.25 mm 0 W/m2
07:07 35.4 °F /  1.9 °C 33.3 °F /  0.7 °C 29.65 in /  1003.9 hPa West 11.0 mph /  17.7 km/h 16.0 mph /  25.7 km/h 92 % 0.01 in /  0.25 mm 0 W/m2
07:12 35.6 °F /  2 °C 33.5 °F /  0.8 °C 29.65 in /  1003.9 hPa West 12.0 mph /  19.3 km/h 20.0 mph /  32.2 km/h 92 % 0.01 in /  0.25 mm 0 W/m2
07:17 35.6 °F /  2 °C 33.5 °F /  0.8 °C 29.66 in /  1004.3 hPa West 10.0 mph /  16.1 km/h 16.0 mph /  25.7 km/h 92 % 0.01 in /  0.25 mm 0 W/m2
07:22 35.6 °F /  2 °C 33.5 °F /  0.8 °C 29.66 in /  1004.3 hPa West 10.0 mph /  16.1 km/h 15.0 mph /  24.1 km/h 92 % 0.01 in /  0.25 mm 0 W/m2
07:27 35.6 °F /  2 °C 33.5 °F /  0.8 °C 29.66 in /  1004.3 hPa West 8.0 mph /  12.9 km/h 12.0 mph /  19.3 km/h 92 % 0.01 in /  0.25 mm 0 W/m2
07:32 35.4 °F /  1.9 °C 33.3 °F /  0.7 °C 29.66 in /  1004.3 hPa West 8.0 mph /  12.9 km/h 12.0 mph /  19.3 km/h 92 % 0.01 in /  0.25 mm 0 W/m2
07:37 35.2 °F /  1.8 °C 33.1 °F /  0.6 °C 29.66 in /  1004.3 hPa West 9.0 mph /  14.5 km/h 14.0 mph /  22.5 km/h 92 % 0.01 in /  0.25 mm 0 W/m2
07:42 35.2 °F /  1.8 °C 33.1 °F /  0.6 °C 29.66 in /  1004.3 hPa West 7.0 mph /  11.3 km/h 11.0 mph /  17.7 km/h 92 % 0.00 in /  0 mm 0 W/m2
07:47 35.2 °F /  1.8 °C 33.1 °F /  0.6 °C 29.66 in /  1004.3 hPa West 8.0 mph /  12.9 km/h 12.0 mph /  19.3 km/h 92 % 0.00 in /  0 mm 0 W/m2
07:52 35.4 °F /  1.9 °C 33.3 °F /  0.7 °C 29.66 in /  1004.3 hPa West 7.0 mph /  11.3 km/h 10.0 mph /  16.1 km/h 92 % 0.00 in /  0 mm 0 W/m2
07:58 35.4 °F /  1.9 °C 33.3 °F /  0.7 °C 29.66 in /  1004.3 hPa West 8.0 mph /  12.9 km/h 12.0 mph /  19.3 km/h 92 % 0.00 in /  0 mm 0 W/m2
08:03 35.4 °F /  1.9 °C 33.1 °F /  0.6 °C 29.66 in /  1004.3 hPa West 6.0 mph /  9.7 km/h 8.0 mph /  12.9 km/h 91 % 0.00 in /  0 mm 5 W/m2
08:08 35.4 °F /  1.9 °C 33.3 °F /  0.7 °C 29.66 in /  1004.3 hPa WSW 8.0 mph /  12.9 km/h 11.0 mph /  17.7 km/h 92 % 0.00 in /  0 mm 0 W/m2
08:13 35.4 °F /  1.9 °C 33.3 °F /  0.7 °C 29.66 in /  1004.3 hPa West 7.0 mph /  11.3 km/h 13.0 mph /  20.9 km/h 92 % 0.00 in /  0 mm 0 W/m2
08:18 35.4 °F /  1.9 °C 33.3 °F /  0.7 °C 29.66 in /  1004.3 hPa WSW 10.0 mph /  16.1 km/h 14.0 mph /  22.5 km/h 92 % 0.00 in /  0 mm 5 W/m2
08:23 35.4 °F /  1.9 °C 33.1 °F /  0.6 °C 29.66 in /  1004.3 hPa West 9.0 mph /  14.5 km/h 14.0 mph /  22.5 km/h 91 % 0.00 in /  0 mm 7 W/m2
08:28 35.6 °F /  2 °C 33.2 °F /  0.7 °C 29.66 in /  1004.3 hPa West 9.0 mph /  14.5 km/h 16.0 mph /  25.7 km/h 91 % 0.00 in /  0 mm 9 W/m2
08:33 35.6 °F /  2 °C 33.2 °F /  0.7 °C 29.66 in /  1004.3 hPa West 10.0 mph /  16.1 km/h 18.0 mph /  29 km/h 91 % 0.00 in /  0 mm 12 W/m2
08:38 35.8 °F /  2.1 °C 33.4 °F /  0.8 °C 29.66 in /  1004.3 hPa West 10.0 mph /  16.1 km/h 16.0 mph /  25.7 km/h 91 % 0.00 in /  0 mm 14 W/m2
08:43 35.8 °F /  2.1 °C 33.4 °F /  0.8 °C 29.66 in /  1004.3 hPa WSW 10.0 mph /  16.1 km/h 14.0 mph /  22.5 km/h 91 % 0.00 in /  0 mm 14 W/m2
08:48 35.8 °F /  2.1 °C 33.1 °F /  0.6 °C 29.67 in /  1004.6 hPa West 9.0 mph /  14.5 km/h 18.0 mph /  29 km/h 90 % 0.00 in /  0 mm 14 W/m2
08:53 36.0 °F /  2.2 °C 33.3 °F /  0.7 °C 29.67 in /  1004.6 hPa West 11.0 mph /  17.7 km/h 19.0 mph /  30.6 km/h 90 % 0.00 in /  0 mm 9 W/m2
08:58 36.0 °F /  2.2 °C 33.3 °F /  0.7 °C 29.67 in /  1004.6 hPa West 9.0 mph /  14.5 km/h 15.0 mph /  24.1 km/h 90 % 0.00 in /  0 mm 25 W/m2
09:03 36.0 °F /  2.2 °C 33.3 °F /  0.7 °C 29.67 in /  1004.6 hPa West 8.0 mph /  12.9 km/h 13.0 mph /  20.9 km/h 90 % 0.00 in /  0 mm 18 W/m2
09:08 35.8 °F /  2.1 °C 33.4 °F /  0.8 °C 29.67 in /  1004.6 hPa West 8.0 mph /  12.9 km/h 12.0 mph /  19.3 km/h 91 % 0.00 in /  0 mm 19 W/m2
09:13 35.8 °F /  2.1 °C 33.4 °F /  0.8 °C 29.67 in /  1004.6 hPa West 9.0 mph /  14.5 km/h 15.0 mph /  24.1 km/h 91 % 0.00 in /  0 mm 21 W/m2
09:18 35.8 °F /  2.1 °C 33.4 °F /  0.8 °C 29.67 in /  1004.6 hPa West 11.0 mph /  17.7 km/h 16.0 mph /  25.7 km/h 91 % 0.00 in /  0 mm 25 W/m2
09:23 35.8 °F /  2.1 °C 33.4 °F /  0.8 °C 29.67 in /  1004.6 hPa West 11.0 mph /  17.7 km/h 21.0 mph /  33.8 km/h 91 % 0.00 in /  0 mm 28 W/m2
09:28 35.8 °F /  2.1 °C 33.4 °F /  0.8 °C 29.67 in /  1004.6 hPa West 10.0 mph /  16.1 km/h 15.0 mph /  24.1 km/h 91 % 0.00 in /  0 mm 86 W/m2
09:33 36.0 °F /  2.2 °C 33.6 °F /  0.9 °C 29.67 in /  1004.6 hPa West 7.0 mph /  11.3 km/h 18.0 mph /  29 km/h 91 % 0.00 in /  0 mm 148 W/m2
09:38 36.1 °F /  2.3 °C 33.8 °F /  1 °C 29.67 in /  1004.6 hPa West 9.0 mph /  14.5 km/h 15.0 mph /  24.1 km/h 91 % 0.00 in /  0 mm 84 W/m2
09:43 36.1 °F /  2.3 °C 33.8 °F /  1 °C 29.67 in /  1004.6 hPa West 5.0 mph /  8 km/h 8.0 mph /  12.9 km/h 91 % 0.00 in /  0 mm 47 W/m2
09:48 36.1 °F /  2.3 °C 33.8 °F /  1 °C 29.66 in /  1004.3 hPa WSW 7.0 mph /  11.3 km/h 12.0 mph /  19.3 km/h 91 % 0.00 in /  0 mm 104 W/m2
09:53 36.3 °F /  2.4 °C 33.9 °F /  1.1 °C 29.66 in /  1004.3 hPa West 9.0 mph /  14.5 km/h 15.0 mph /  24.1 km/h 91 % 0.00 in /  0 mm 176 W/m2
09:58 36.7 °F /  2.6 °C 34.3 °F /  1.3 °C 29.67 in /  1004.6 hPa West 9.0 mph /  14.5 km/h 19.0 mph /  30.6 km/h 91 % 0.00 in /  0 mm 171 W/m2
10:03 36.9 °F /  2.7 °C 34.2 °F /  1.2 °C 29.66 in /  1004.3 hPa West 9.0 mph /  14.5 km/h 14.0 mph /  22.5 km/h 90 % 0.00 in /  0 mm 84 W/m2
10:08 37.0 °F /  2.8 °C 34.4 °F /  1.3 °C 29.66 in /  1004.3 hPa West 8.0 mph /  12.9 km/h 13.0 mph /  20.9 km/h 90 % 0.00 in /  0 mm 62 W/m2
10:13 36.9 °F /  2.7 °C 33.9 °F /  1.1 °C 29.66 in /  1004.3 hPa West 10.0 mph /  16.1 km/h 15.0 mph /  24.1 km/h 89 % 0.00 in /  0 mm 54 W/m2
10:18 36.9 °F /  2.7 °C 33.9 °F /  1.1 °C 29.67 in /  1004.6 hPa West 11.0 mph /  17.7 km/h 16.0 mph /  25.7 km/h 89 % 0.00 in /  0 mm 40 W/m2
10:23 36.9 °F /  2.7 °C 33.9 °F /  1.1 °C 29.66 in /  1004.3 hPa WSW 12.0 mph /  19.3 km/h 16.0 mph /  25.7 km/h 89 % 0.00 in /  0 mm 32 W/m2
10:28 36.9 °F /  2.7 °C 33.9 °F /  1.1 °C 29.66 in /  1004.3 hPa WSW 9.0 mph /  14.5 km/h 15.0 mph /  24.1 km/h 89 % 0.00 in /  0 mm 40 W/m2
10:33 36.7 °F /  2.6 °C 33.7 °F /  0.9 °C 29.66 in /  1004.3 hPa WSW 8.0 mph /  12.9 km/h 14.0 mph /  22.5 km/h 89 % 0.00 in /  0 mm 58 W/m2
10:38 36.7 °F /  2.6 °C 34.0 °F /  1.1 °C 29.66 in /  1004.3 hPa West 8.0 mph /  12.9 km/h 12.0 mph /  19.3 km/h 90 % 0.00 in /  0 mm 77 W/m2
10:43 36.7 °F /  2.6 °C 34.0 °F /  1.1 °C 29.66 in /  1004.3 hPa West 10.0 mph /  16.1 km/h 18.0 mph /  29 km/h 90 % 0.00 in /  0 mm 95 W/m2
10:48 36.7 °F /  2.6 °C 34.0 °F /  1.1 °C 29.66 in /  1004.3 hPa West 7.0 mph /  11.3 km/h 12.0 mph /  19.3 km/h 90 % 0.00 in /  0 mm 172 W/m2
10:53 37.0 °F /  2.8 °C 34.4 °F /  1.3 °C 29.66 in /  1004.3 hPa West 14.0 mph /  22.5 km/h 23.0 mph /  37 km/h 90 % 0.00 in /  0 mm 113 W/m2
10:58 37.6 °F /  3.1 °C 34.6 °F /  1.4 °C 29.66 in /  1004.3 hPa West 13.0 mph /  20.9 km/h 22.0 mph /  35.4 km/h 89 % 0.00 in /  0 mm 229 W/m2
11:03 37.8 °F /  3.2 °C 34.5 °F /  1.4 °C 29.66 in /  1004.3 hPa West 12.0 mph /  19.3 km/h 20.0 mph /  32.2 km/h 88 % 0.00 in /  0 mm 294 W/m2
11:08 38.3 °F /  3.5 °C 34.8 °F /  1.6 °C 29.66 in /  1004.3 hPa West 12.0 mph /  19.3 km/h 16.0 mph /  25.7 km/h 87 % 0.00 in /  0 mm 265 W/m2
11:13 38.7 °F /  3.7 °C 35.1 °F /  1.7 °C 29.66 in /  1004.3 hPa West 9.0 mph /  14.5 km/h 16.0 mph /  25.7 km/h 87 % 0.00 in /  0 mm 179 W/m2
11:18 38.5 °F /  3.6 °C 34.7 °F /  1.5 °C 29.66 in /  1004.3 hPa West 15.0 mph /  24.1 km/h 25.0 mph /  40.2 km/h 86 % 0.00 in /  0 mm 272 W/m2
11:24 38.3 °F /  3.5 °C 35.1 °F /  1.7 °C 29.66 in /  1004.3 hPa West 12.0 mph /  19.3 km/h 19.0 mph /  30.6 km/h 88 % 0.00 in /  0 mm 294 W/m2
11:29 38.5 °F /  3.6 °C 35.2 °F /  1.8 °C 29.66 in /  1004.3 hPa West 11.0 mph /  17.7 km/h 16.0 mph /  25.7 km/h 88 % 0.00 in /  0 mm 301 W/m2
11:34 38.7 °F /  3.7 °C 35.1 °F /  1.7 °C 29.65 in /  1003.9 hPa West 11.0 mph /  17.7 km/h 21.0 mph /  33.8 km/h 87 % 0.00 in /  0 mm 313 W/m2
11:39 38.8 °F /  3.8 °C 35.3 °F /  1.8 °C 29.65 in /  1003.9 hPa West 12.0 mph /  19.3 km/h 21.0 mph /  33.8 km/h 87 % 0.00 in /  0 mm 250 W/m2
11:44 39.0 °F /  3.9 °C 35.2 °F /  1.8 °C 29.65 in /  1003.9 hPa West 15.0 mph /  24.1 km/h 25.0 mph /  40.2 km/h 86 % 0.00 in /  0 mm 84 W/m2
11:49 38.8 °F /  3.8 °C 34.7 °F /  1.5 °C 29.65 in /  1003.9 hPa West 11.0 mph /  17.7 km/h 18.0 mph /  29 km/h 85 % 0.00 in /  0 mm 171 W/m2
11:54 38.7 °F /  3.7 °C 34.8 °F /  1.6 °C 29.65 in /  1003.9 hPa West 17.0 mph /  27.4 km/h 27.0 mph /  43.5 km/h 86 % 0.00 in /  0 mm 102 W/m2
11:59 38.3 °F /  3.5 °C 34.5 °F /  1.4 °C 29.65 in /  1003.9 hPa West 13.0 mph /  20.9 km/h 20.0 mph /  32.2 km/h 86 % 0.00 in /  0 mm 120 W/m2
12:04 38.3 °F /  3.5 °C 35.1 °F /  1.7 °C 29.65 in /  1003.9 hPa West 12.0 mph /  19.3 km/h 21.0 mph /  33.8 km/h 88 % 0.00 in /  0 mm 336 W/m2
12:09 38.5 °F /  3.6 °C 35.2 °F /  1.8 °C 29.65 in /  1003.9 hPa West 15.0 mph /  24.1 km/h 23.0 mph /  37 km/h 88 % 0.00 in /  0 mm 151 W/m2
12:14 38.5 °F /  3.6 °C 35.2 °F /  1.8 °C 29.65 in /  1003.9 hPa West 13.0 mph /  20.9 km/h 20.0 mph /  32.2 km/h 88 % 0.01 in /  0.25 mm 137 W/m2
12:19 38.5 °F /  3.6 °C 35.5 °F /  1.9 °C 29.65 in /  1003.9 hPa West 12.0 mph /  19.3 km/h 21.0 mph /  33.8 km/h 89 % 0.01 in /  0.25 mm 332 W/m2
12:24 39.0 °F /  3.9 °C 35.8 °F /  2.1 °C 29.65 in /  1003.9 hPa West 16.0 mph /  25.7 km/h 28.0 mph /  45.1 km/h 88 % 0.01 in /  0.25 mm 323 W/m2
12:29 39.7 °F /  4.3 °C 35.9 °F /  2.2 °C 29.64 in /  1003.6 hPa West 15.0 mph /  24.1 km/h 24.0 mph /  38.6 km/h 86 % 0.01 in /  0.25 mm 329 W/m2
12:34 40.3 °F /  4.6 °C 36.1 °F /  2.3 °C 29.65 in /  1003.9 hPa West 13.0 mph /  20.9 km/h 21.0 mph /  33.8 km/h 85 % 0.01 in /  0.25 mm 359 W/m2
12:39 40.5 °F /  4.7 °C 35.7 °F /  2.1 °C 29.65 in /  1003.9 hPa West 17.0 mph /  27.4 km/h 25.0 mph /  40.2 km/h 83 % 0.01 in /  0.25 mm 464 W/m2
12:44 40.8 °F /  4.9 °C 35.7 °F /  2.1 °C 29.65 in /  1003.9 hPa West 19.0 mph /  30.6 km/h 26.0 mph /  41.8 km/h 82 % 0.01 in /  0.25 mm 468 W/m2
12:49 41.0 °F /  5 °C 35.9 °F /  2.2 °C 29.65 in /  1003.9 hPa West 14.0 mph /  22.5 km/h 23.0 mph /  37 km/h 82 % 0.01 in /  0.25 mm 403 W/m2
12:54 41.4 °F /  5.2 °C 36.3 °F /  2.4 °C 29.65 in /  1003.9 hPa WSW 13.0 mph /  20.9 km/h 23.0 mph /  37 km/h 82 % 0.01 in /  0.25 mm 345 W/m2
12:59 41.5 °F /  5.3 °C 35.8 °F /  2.1 °C 29.65 in /  1003.9 hPa West 15.0 mph /  24.1 km/h 23.0 mph /  37 km/h 80 % 0.01 in /  0.25 mm 313 W/m2
13:04 41.5 °F /  5.3 °C 35.8 °F /  2.1 °C 29.65 in /  1003.9 hPa West 13.0 mph /  20.9 km/h 20.0 mph /  32.2 km/h 80 % 0.01 in /  0.25 mm 343 W/m2
13:09 41.7 °F /  5.4 °C 36.0 °F /  2.2 °C 29.65 in /  1003.9 hPa West 13.0 mph /  20.9 km/h 20.0 mph /  32.2 km/h 80 % 0.01 in /  0.25 mm 338 W/m2
13:14 41.9 °F /  5.5 °C 35.9 °F /  2.2 °C 29.64 in /  1003.6 hPa West 15.0 mph /  24.1 km/h 23.0 mph /  37 km/h 79 % 0.00 in /  0 mm 330 W/m2
13:19 41.9 °F /  5.5 °C 35.9 °F /  2.2 °C 29.65 in /  1003.9 hPa WSW 12.0 mph /  19.3 km/h 22.0 mph /  35.4 km/h 79 % 0.00 in /  0 mm 278 W/m2
13:24 41.7 °F /  5.4 °C 35.4 °F /  1.9 °C 29.64 in /  1003.6 hPa WSW 13.0 mph /  20.9 km/h 20.0 mph /  32.2 km/h 78 % 0.00 in /  0 mm 295 W/m2
13:29 41.5 °F /  5.3 °C 35.2 °F /  1.8 °C 29.65 in /  1003.9 hPa WSW 13.0 mph /  20.9 km/h 20.0 mph /  32.2 km/h 78 % 0.00 in /  0 mm 295 W/m2
13:34 41.5 °F /  5.3 °C 35.2 °F /  1.8 °C 29.65 in /  1003.9 hPa West 14.0 mph /  22.5 km/h 23.0 mph /  37 km/h 78 % 0.00 in /  0 mm 111 W/m2
13:39 41.2 °F /  5.1 °C 34.8 °F /  1.6 °C 29.65 in /  1003.9 hPa WSW 14.0 mph /  22.5 km/h 19.0 mph /  30.6 km/h 78 % 0.00 in /  0 mm 95 W/m2
13:44 41.0 °F /  5 °C 34.7 °F /  1.5 °C 29.65 in /  1003.9 hPa WSW 12.0 mph /  19.3 km/h 19.0 mph /  30.6 km/h 78 % 0.00 in /  0 mm 151 W/m2
13:49 40.8 °F /  4.9 °C 34.8 °F /  1.6 °C 29.65 in /  1003.9 hPa West 14.0 mph /  22.5 km/h 22.0 mph /  35.4 km/h 79 % 0.00 in /  0 mm 214 W/m2
13:54 40.8 °F /  4.9 °C 35.1 °F /  1.7 °C 29.65 in /  1003.9 hPa West 15.0 mph /  24.1 km/h 22.0 mph /  35.4 km/h 80 % 0.00 in /  0 mm 339 W/m2
13:59 40.8 °F /  4.9 °C 35.4 °F /  1.9 °C 29.65 in /  1003.9 hPa West 9.0 mph /  14.5 km/h 13.0 mph /  20.9 km/h 81 % 0.00 in /  0 mm 123 W/m2
14:04 40.8 °F /  4.9 °C 35.4 °F /  1.9 °C 29.65 in /  1003.9 hPa West 10.0 mph /  16.1 km/h 15.0 mph /  24.1 km/h 81 % 0.00 in /  0 mm 81 W/m2
14:09 40.6 °F /  4.8 °C 35.3 °F /  1.8 °C 29.65 in /  1003.9 hPa West 8.0 mph /  12.9 km/h 12.0 mph /  19.3 km/h 81 % 0.00 in /  0 mm 204 W/m2
14:14 40.8 °F /  4.9 °C 34.8 °F /  1.6 °C 29.65 in /  1003.9 hPa West 12.0 mph /  19.3 km/h 19.0 mph /  30.6 km/h 79 % 0.00 in /  0 mm 98 W/m2
14:19 40.8 °F /  4.9 °C 35.1 °F /  1.7 °C 29.65 in /  1003.9 hPa West 7.0 mph /  11.3 km/h 12.0 mph /  19.3 km/h 80 % 0.00 in /  0 mm 69 W/m2
14:24 40.8 °F /  4.9 °C 35.1 °F /  1.7 °C 29.65 in /  1003.9 hPa West 8.0 mph /  12.9 km/h 14.0 mph /  22.5 km/h 80 % 0.00 in /  0 mm 97 W/m2
14:29 40.6 °F /  4.8 °C 35.0 °F /  1.7 °C 29.65 in /  1003.9 hPa West 6.0 mph /  9.7 km/h 9.0 mph /  14.5 km/h 80 % 0.00 in /  0 mm 86 W/m2
14:34 40.6 °F /  4.8 °C 34.6 °F /  1.4 °C 29.65 in /  1003.9 hPa WSW 8.0 mph /  12.9 km/h 13.0 mph /  20.9 km/h 79 % 0.00 in /  0 mm 109 W/m2
14:39 40.8 °F /  4.9 °C 35.1 °F /  1.7 °C 29.65 in /  1003.9 hPa West 9.0 mph /  14.5 km/h 14.0 mph /  22.5 km/h 80 % 0.00 in /  0 mm 135 W/m2
14:44 41.2 °F /  5.1 °C 35.2 °F /  1.8 °C 29.65 in /  1003.9 hPa West 8.0 mph /  12.9 km/h 16.0 mph /  25.7 km/h 79 % 0.00 in /  0 mm 104 W/m2
14:49 41.2 °F /  5.1 °C 34.8 °F /  1.6 °C 29.65 in /  1003.9 hPa West 9.0 mph /  14.5 km/h 13.0 mph /  20.9 km/h 78 % 0.00 in /  0 mm 83 W/m2
14:54 41.2 °F /  5.1 °C 34.8 °F /  1.6 °C 29.65 in /  1003.9 hPa West 8.0 mph /  12.9 km/h 14.0 mph /  22.5 km/h 78 % 0.00 in /  0 mm 156 W/m2
14:59 41.4 °F /  5.2 °C 34.7 °F /  1.5 °C 29.65 in /  1003.9 hPa West 9.0 mph /  14.5 km/h 15.0 mph /  24.1 km/h 77 % 0.00 in /  0 mm 144 W/m2
15:04 41.4 °F /  5.2 °C 34.7 °F /  1.5 °C 29.65 in /  1003.9 hPa West 9.0 mph /  14.5 km/h 13.0 mph /  20.9 km/h 77 % 0.00 in /  0 mm 165 W/m2
15:09 41.4 °F /  5.2 °C 34.7 °F /  1.5 °C 29.65 in /  1003.9 hPa WSW 6.0 mph /  9.7 km/h 10.0 mph /  16.1 km/h 77 % 0.00 in /  0 mm 178 W/m2
15:14 41.2 °F /  5.1 °C 34.5 °F /  1.4 °C 29.64 in /  1003.6 hPa WSW 6.0 mph /  9.7 km/h 9.0 mph /  14.5 km/h 77 % 0.00 in /  0 mm 88 W/m2
15:20 41.0 °F /  5 °C 34.3 °F /  1.3 °C 29.65 in /  1003.9 hPa West 7.0 mph /  11.3 km/h 13.0 mph /  20.9 km/h 77 % 0.00 in /  0 mm 86 W/m2
15:25 40.8 °F /  4.9 °C 34.2 °F /  1.2 °C 29.65 in /  1003.9 hPa WSW 11.0 mph /  17.7 km/h 19.0 mph /  30.6 km/h 77 % 0.00 in /  0 mm 42 W/m2
15:30 40.5 °F /  4.7 °C 34.1 °F /  1.2 °C 29.65 in /  1003.9 hPa West 10.0 mph /  16.1 km/h 15.0 mph /  24.1 km/h 78 % 0.00 in /  0 mm 21 W/m2
15:35 40.3 °F /  4.6 °C 34.6 °F /  1.4 °C 29.65 in /  1003.9 hPa West 10.0 mph /  16.1 km/h 16.0 mph /  25.7 km/h 80 % 0.00 in /  0 mm 14 W/m2
15:40 39.7 °F /  4.3 °C 34.4 °F /  1.3 °C 29.66 in /  1004.3 hPa WNW 8.0 mph /  12.9 km/h 12.0 mph /  19.3 km/h 81 % 0.00 in /  0 mm 12 W/m2
15:45 39.6 °F /  4.2 °C 34.8 °F /  1.6 °C 29.65 in /  1003.9 hPa WNW 5.0 mph /  8 km/h 10.0 mph /  16.1 km/h 83 % 0.00 in /  0 mm 0 W/m2
15:50 39.4 °F /  4.1 °C 34.9 °F /  1.6 °C 29.66 in /  1004.3 hPa West 6.0 mph /  9.7 km/h 9.0 mph /  14.5 km/h 84 % 0.00 in /  0 mm 0 W/m2
15:55 39.0 °F /  3.9 °C 34.9 °F /  1.6 °C 29.65 in /  1003.9 hPa WSW 7.0 mph /  11.3 km/h 14.0 mph /  22.5 km/h 85 % 0.00 in /  0 mm 9 W/m2
16:00 38.7 °F /  3.7 °C 34.5 °F /  1.4 °C 29.64 in /  1003.6 hPa WSW 4.0 mph /  6.4 km/h 8.0 mph /  12.9 km/h 85 % 0.00 in /  0 mm 12 W/m2
16:05 38.3 °F /  3.5 °C 34.5 °F /  1.4 °C 29.64 in /  1003.6 hPa West 3.0 mph /  4.8 km/h 7.0 mph /  11.3 km/h 86 % 0.01 in /  0.25 mm 9 W/m2
16:10 37.9 °F /  3.3 °C 34.4 °F /  1.3 °C 29.65 in /  1003.9 hPa West 3.0 mph /  4.8 km/h 6.0 mph /  9.7 km/h 87 % 0.01 in /  0.25 mm 7 W/m2
16:15 37.8 °F /  3.2 °C 34.2 °F /  1.2 °C 29.64 in /  1003.6 hPa WSW 4.0 mph /  6.4 km/h 8.0 mph /  12.9 km/h 87 % 0.01 in /  0.25 mm 7 W/m2
16:20 37.6 °F /  3.1 °C 34.1 °F /  1.2 °C 29.64 in /  1003.6 hPa West 4.0 mph /  6.4 km/h 14.0 mph /  22.5 km/h 87 % 0.01 in /  0.25 mm 5 W/m2
16:25 37.8 °F /  3.2 °C 34.2 °F /  1.2 °C 29.64 in /  1003.6 hPa West 18.0 mph /  29 km/h 31.0 mph /  49.9 km/h 87 % 0.01 in /  0.25 mm 5 W/m2
16:30 37.8 °F /  3.2 °C 34.2 °F /  1.2 °C 29.64 in /  1003.6 hPa West 12.0 mph /  19.3 km/h 18.0 mph /  29 km/h 87 % 0.01 in /  0.25 mm 0 W/m2
16:35 37.6 °F /  3.1 °C 34.1 °F /  1.2 °C 29.64 in /  1003.6 hPa West 14.0 mph /  22.5 km/h 24.0 mph /  38.6 km/h 87 % 0.01 in /  0.25 mm 0 W/m2
16:40 37.4 °F /  3 °C 33.9 °F /  1.1 °C 29.64 in /  1003.6 hPa West 12.0 mph /  19.3 km/h 23.0 mph /  37 km/h 87 % 0.01 in /  0.25 mm 0 W/m2
16:45 37.2 °F /  2.9 °C 33.7 °F /  0.9 °C 29.64 in /  1003.6 hPa West 14.0 mph /  22.5 km/h 24.0 mph /  38.6 km/h 87 % 0.01 in /  0.25 mm 0 W/m2
16:50 37.2 °F /  2.9 °C 33.7 °F /  0.9 °C 29.64 in /  1003.6 hPa West 11.0 mph /  17.7 km/h 21.0 mph /  33.8 km/h 87 % 0.01 in /  0.25 mm 0 W/m2
16:55 37.2 °F /  2.9 °C 33.7 °F /  0.9 °C 29.64 in /  1003.6 hPa West 12.0 mph /  19.3 km/h 20.0 mph /  32.2 km/h 87 % 0.01 in /  0.25 mm 0 W/m2
17:00 37.2 °F /  2.9 °C 33.7 °F /  0.9 °C 29.64 in /  1003.6 hPa West 7.0 mph /  11.3 km/h 12.0 mph /  19.3 km/h 87 % 0.01 in /  0.25 mm 0 W/m2
17:05 37.2 °F /  2.9 °C 33.7 °F /  0.9 °C 29.63 in /  1003.3 hPa West 9.0 mph /  14.5 km/h 19.0 mph /  30.6 km/h 87 % 0.00 in /  0 mm 0 W/m2
17:10 37.2 °F /  2.9 °C 33.7 °F /  0.9 °C 29.63 in /  1003.3 hPa West 13.0 mph /  20.9 km/h 20.0 mph /  32.2 km/h 87 % 0.00 in /  0 mm 0 W/m2
17:15 37.6 °F /  3.1 °C 34.1 °F /  1.2 °C 29.63 in /  1003.3 hPa West 15.0 mph /  24.1 km/h 24.0 mph /  38.6 km/h 87 % 0.00 in /  0 mm 0 W/m2
17:20 37.8 °F /  3.2 °C 33.9 °F /  1.1 °C 29.64 in /  1003.6 hPa West 12.0 mph /  19.3 km/h 22.0 mph /  35.4 km/h 86 % 0.00 in /  0 mm 0 W/m2
17:25 37.8 °F /  3.2 °C 33.9 °F /  1.1 °C 29.63 in /  1003.3 hPa West 9.0 mph /  14.5 km/h 13.0 mph /  20.9 km/h 86 % 0.00 in /  0 mm 0 W/m2
17:30 37.8 °F /  3.2 °C 33.9 °F /  1.1 °C 29.64 in /  1003.6 hPa West 15.0 mph /  24.1 km/h 24.0 mph /  38.6 km/h 86 % 0.00 in /  0 mm 0 W/m2
17:35 37.9 °F /  3.3 °C 33.8 °F /  1 °C 29.64 in /  1003.6 hPa West 11.0 mph /  17.7 km/h 16.0 mph /  25.7 km/h 85 % 0.00 in /  0 mm 0 W/m2
17:40 37.9 °F /  3.3 °C 33.8 °F /  1 °C 29.63 in /  1003.3 hPa West 11.0 mph /  17.7 km/h 20.0 mph /  32.2 km/h 85 % 0.00 in /  0 mm 0 W/m2
17:45 37.9 °F /  3.3 °C 33.8 °F /  1 °C 29.63 in /  1003.3 hPa West 16.0 mph /  25.7 km/h 24.0 mph /  38.6 km/h 85 % 0.00 in /  0 mm 0 W/m2
17:50 37.9 °F /  3.3 °C 33.8 °F /  1 °C 29.63 in /  1003.3 hPa West 13.0 mph /  20.9 km/h 24.0 mph /  38.6 km/h 85 % 0.00 in /  0 mm 0 W/m2
17:55 37.9 °F /  3.3 °C 33.8 °F /  1 °C 29.62 in /  1002.9 hPa West 17.0 mph /  27.4 km/h 31.0 mph /  49.9 km/h 85 % 0.00 in /  0 mm 0 W/m2
18:00 37.9 °F /  3.3 °C 33.8 °F /  1 °C 29.62 in /  1002.9 hPa West 14.0 mph /  22.5 km/h 25.0 mph /  40.2 km/h 85 % 0.00 in /  0 mm 0 W/m2
18:05 38.1 °F /  3.4 °C 33.7 °F /  0.9 °C 29.62 in /  1002.9 hPa West 16.0 mph /  25.7 km/h 26.0 mph /  41.8 km/h 84 % 0.00 in /  0 mm 0 W/m2
18:10 38.1 °F /  3.4 °C 33.7 °F /  0.9 °C 29.63 in /  1003.3 hPa West 15.0 mph /  24.1 km/h 28.0 mph /  45.1 km/h 84 % 0.00 in /  0 mm 0 W/m2
18:15 38.1 °F /  3.4 °C 33.7 °F /  0.9 °C 29.63 in /  1003.3 hPa West 17.0 mph /  27.4 km/h 24.0 mph /  38.6 km/h 84 % 0.00 in /  0 mm 0 W/m2
18:20 37.9 °F /  3.3 °C 33.5 °F /  0.8 °C 29.63 in /  1003.3 hPa West 12.0 mph /  19.3 km/h 20.0 mph /  32.2 km/h 84 % 0.00 in /  0 mm 0 W/m2
18:25 37.9 °F /  3.3 °C 33.5 °F /  0.8 °C 29.63 in /  1003.3 hPa West 16.0 mph /  25.7 km/h 25.0 mph /  40.2 km/h 84 % 0.00 in /  0 mm 0 W/m2
18:31 37.9 °F /  3.3 °C 33.5 °F /  0.8 °C 29.62 in /  1002.9 hPa West 16.0 mph /  25.7 km/h 29.0 mph /  46.7 km/h 84 % 0.00 in /  0 mm 0 W/m2
18:36 37.9 °F /  3.3 °C 33.5 °F /  0.8 °C 29.63 in /  1003.3 hPa West 18.0 mph /  29 km/h 29.0 mph /  46.7 km/h 84 % 0.00 in /  0 mm 0 W/m2
18:41 37.9 °F /  3.3 °C 33.5 °F /  0.8 °C 29.63 in /  1003.3 hPa West 20.0 mph /  32.2 km/h 28.0 mph /  45.1 km/h 84 % 0.00 in /  0 mm 0 W/m2
18:46 37.9 °F /  3.3 °C 33.5 °F /  0.8 °C 29.62 in /  1002.9 hPa West 17.0 mph /  27.4 km/h 27.0 mph /  43.5 km/h 84 % 0.00 in /  0 mm 0 W/m2
18:51 37.9 °F /  3.3 °C 33.2 °F /  0.7 °C 29.62 in /  1002.9 hPa West 16.0 mph /  25.7 km/h 25.0 mph /  40.2 km/h 83 % 0.00 in /  0 mm 0 W/m2
18:56 37.9 °F /  3.3 °C 33.2 °F /  0.7 °C 29.62 in /  1002.9 hPa West 16.0 mph /  25.7 km/h 24.0 mph /  38.6 km/h 83 % 0.00 in /  0 mm 0 W/m2
19:01 37.9 °F /  3.3 °C 33.2 °F /  0.7 °C 29.62 in /  1002.9 hPa West 19.0 mph /  30.6 km/h 31.0 mph /  49.9 km/h 83 % 0.00 in /  0 mm 0 W/m2
19:06 37.9 °F /  3.3 °C 33.2 °F /  0.7 °C 29.63 in /  1003.3 hPa West 18.0 mph /  29 km/h 29.0 mph /  46.7 km/h 83 % 0.00 in /  0 mm 0 W/m2
19:11 37.9 °F /  3.3 °C 33.2 °F /  0.7 °C 29.63 in /  1003.3 hPa West 15.0 mph /  24.1 km/h 23.0 mph /  37 km/h 83 % 0.00 in /  0 mm 0 W/m2
19:16 37.9 °F /  3.3 °C 33.5 °F /  0.8 °C 29.63 in /  1003.3 hPa West 17.0 mph /  27.4 km/h 25.0 mph /  40.2 km/h 84 % 0.00 in /  0 mm 0 W/m2
19:21 37.9 °F /  3.3 °C 33.2 °F /  0.7 °C 29.64 in /  1003.6 hPa West 16.0 mph /  25.7 km/h 28.0 mph /  45.1 km/h 83 % 0.00 in /  0 mm 0 W/m2
19:26 37.9 °F /  3.3 °C 33.2 °F /  0.7 °C 29.64 in /  1003.6 hPa West 17.0 mph /  27.4 km/h 24.0 mph /  38.6 km/h 83 % 0.00 in /  0 mm 0 W/m2
19:31 37.9 °F /  3.3 °C 33.2 °F /  0.7 °C 29.64 in /  1003.6 hPa West 16.0 mph /  25.7 km/h 25.0 mph /  40.2 km/h 83 % 0.00 in /  0 mm 0 W/m2
19:36 37.9 °F /  3.3 °C 33.2 °F /  0.7 °C 29.65 in /  1003.9 hPa West 13.0 mph /  20.9 km/h 20.0 mph /  32.2 km/h 83 % 0.00 in /  0 mm 0 W/m2
19:41 37.8 °F /  3.2 °C 33.4 °F /  0.8 °C 29.65 in /  1003.9 hPa West 13.0 mph /  20.9 km/h 20.0 mph /  32.2 km/h 84 % 0.00 in /  0 mm 0 W/m2
19:46 37.9 °F /  3.3 °C 33.5 °F /  0.8 °C 29.65 in /  1003.9 hPa West 14.0 mph /  22.5 km/h 21.0 mph /  33.8 km/h 84 % 0.00 in /  0 mm 0 W/m2
19:51 37.9 °F /  3.3 °C 33.5 °F /  0.8 °C 29.65 in /  1003.9 hPa West 17.0 mph /  27.4 km/h 27.0 mph /  43.5 km/h 84 % 0.00 in /  0 mm 0 W/m2
19:56 37.9 °F /  3.3 °C 33.5 °F /  0.8 °C 29.66 in /  1004.3 hPa West 17.0 mph /  27.4 km/h 24.0 mph /  38.6 km/h 84 % 0.00 in /  0 mm 0 W/m2
20:01 37.6 °F /  3.1 °C 33.8 °F /  1 °C 29.66 in /  1004.3 hPa West 16.0 mph /  25.7 km/h 26.0 mph /  41.8 km/h 86 % 0.00 in /  0 mm 0 W/m2
20:06 37.0 °F /  2.8 °C 33.8 °F /  1 °C 29.66 in /  1004.3 hPa West 15.0 mph /  24.1 km/h 25.0 mph /  40.2 km/h 88 % 0.00 in /  0 mm 0 W/m2
20:11 36.9 °F /  2.7 °C 33.9 °F /  1.1 °C 29.66 in /  1004.3 hPa West 11.0 mph /  17.7 km/h 18.0 mph /  29 km/h 89 % 0.00 in /  0 mm 0 W/m2
20:16 36.7 °F /  2.6 °C 34.0 °F /  1.1 °C 29.66 in /  1004.3 hPa WSW 10.0 mph /  16.1 km/h 18.0 mph /  29 km/h 90 % 0.00 in /  0 mm 0 W/m2
20:21 36.7 °F /  2.6 °C 34.0 °F /  1.1 °C 29.66 in /  1004.3 hPa WSW 15.0 mph /  24.1 km/h 24.0 mph /  38.6 km/h 90 % 0.01 in /  0.25 mm 0 W/m2
20:26 36.3 °F /  2.4 °C 33.9 °F /  1.1 °C 29.66 in /  1004.3 hPa West 14.0 mph /  22.5 km/h 22.0 mph /  35.4 km/h 91 % 0.01 in /  0.25 mm 0 W/m2
20:31 36.1 °F /  2.3 °C 33.8 °F /  1 °C 29.66 in /  1004.3 hPa West 11.0 mph /  17.7 km/h 22.0 mph /  35.4 km/h 91 % 0.02 in /  0.51 mm 0 W/m2
20:36 36.1 °F /  2.3 °C 33.8 °F /  1 °C 29.66 in /  1004.3 hPa West 11.0 mph /  17.7 km/h 18.0 mph /  29 km/h 91 % 0.02 in /  0.51 mm 0 W/m2
20:41 36.0 °F /  2.2 °C 33.9 °F /  1.1 °C 29.66 in /  1004.3 hPa WSW 10.0 mph /  16.1 km/h 16.0 mph /  25.7 km/h 92 % 0.02 in /  0.51 mm 0 W/m2
20:46 36.0 °F /  2.2 °C 33.9 °F /  1.1 °C 29.66 in /  1004.3 hPa West 10.0 mph /  16.1 km/h 14.0 mph /  22.5 km/h 92 % 0.02 in /  0.51 mm 0 W/m2
20:51 36.0 °F /  2.2 °C 33.9 °F /  1.1 °C 29.66 in /  1004.3 hPa West 9.0 mph /  14.5 km/h 14.0 mph /  22.5 km/h 92 % 0.02 in /  0.51 mm 0 W/m2
20:56 36.0 °F /  2.2 °C 33.9 °F /  1.1 °C 29.66 in /  1004.3 hPa West 7.0 mph /  11.3 km/h 15.0 mph /  24.1 km/h 92 % 0.02 in /  0.51 mm 0 W/m2
21:01 36.0 °F /  2.2 °C 33.9 °F /  1.1 °C 29.66 in /  1004.3 hPa West 8.0 mph /  12.9 km/h 12.0 mph /  19.3 km/h 92 % 0.02 in /  0.51 mm 0 W/m2
21:06 35.8 °F /  2.1 °C 33.7 °F /  0.9 °C 29.66 in /  1004.3 hPa West 7.0 mph /  11.3 km/h 11.0 mph /  17.7 km/h 92 % 0.02 in /  0.51 mm 0 W/m2
21:11 35.8 °F /  2.1 °C 33.7 °F /  0.9 °C 29.65 in /  1003.9 hPa WSW 7.0 mph /  11.3 km/h 14.0 mph /  22.5 km/h 92 % 0.02 in /  0.51 mm 0 W/m2
21:16 35.6 °F /  2 °C 33.5 °F /  0.8 °C 29.66 in /  1004.3 hPa West 8.0 mph /  12.9 km/h 14.0 mph /  22.5 km/h 92 % 0.01 in /  0.25 mm 0 W/m2
21:21 35.4 °F /  1.9 °C 33.3 °F /  0.7 °C 29.66 in /  1004.3 hPa West 7.0 mph /  11.3 km/h 12.0 mph /  19.3 km/h 92 % 0.01 in /  0.25 mm 0 W/m2
21:26 35.6 °F /  2 °C 33.5 °F /  0.8 °C 29.66 in /  1004.3 hPa WNW 8.0 mph /  12.9 km/h 13.0 mph /  20.9 km/h 92 % 0.01 in /  0.25 mm 0 W/m2
21:31 35.8 °F /  2.1 °C 33.7 °F /  0.9 °C 29.66 in /  1004.3 hPa West 10.0 mph /  16.1 km/h 14.0 mph /  22.5 km/h 92 % 0.00 in /  0 mm 0 W/m2
21:36 35.8 °F /  2.1 °C 33.7 °F /  0.9 °C 29.66 in /  1004.3 hPa West 8.0 mph /  12.9 km/h 13.0 mph /  20.9 km/h 92 % 0.00 in /  0 mm 0 W/m2
21:41 35.8 °F /  2.1 °C 33.7 °F /  0.9 °C 29.66 in /  1004.3 hPa West 8.0 mph /  12.9 km/h 13.0 mph /  20.9 km/h 92 % 0.00 in /  0 mm 0 W/m2
21:46 35.8 °F /  2.1 °C 33.7 °F /  0.9 °C 29.66 in /  1004.3 hPa West 7.0 mph /  11.3 km/h 10.0 mph /  16.1 km/h 92 % 0.00 in /  0 mm 0 W/m2
21:51 35.8 °F /  2.1 °C 33.7 °F /  0.9 °C 29.66 in /  1004.3 hPa West 9.0 mph /  14.5 km/h 15.0 mph /  24.1 km/h 92 % 0.00 in /  0 mm 0 W/m2
21:57 36.0 °F /  2.2 °C 33.9 °F /  1.1 °C 29.66 in /  1004.3 hPa West 9.0 mph /  14.5 km/h 15.0 mph /  24.1 km/h 92 % 0.00 in /  0 mm 0 W/m2
22:01 36.1 °F /  2.3 °C 34.0 °F /  1.1 °C 29.66 in /  1004.3 hPa West 8.0 mph /  12.9 km/h 13.0 mph /  20.9 km/h 92 % 0.00 in /  0 mm 0 W/m2
22:07 36.1 °F /  2.3 °C 34.0 °F /  1.1 °C 29.66 in /  1004.3 hPa West 9.0 mph /  14.5 km/h 13.0 mph /  20.9 km/h 92 % 0.00 in /  0 mm 0 W/m2
22:12 36.1 °F /  2.3 °C 34.0 °F /  1.1 °C 29.66 in /  1004.3 hPa West 8.0 mph /  12.9 km/h 12.0 mph /  19.3 km/h 92 % 0.00 in /  0 mm 0 W/m2
22:17 36.1 °F /  2.3 °C 34.0 °F /  1.1 °C 29.66 in /  1004.3 hPa West 8.0 mph /  12.9 km/h 14.0 mph /  22.5 km/h 92 % 0.00 in /  0 mm 0 W/m2
22:22 36.1 °F /  2.3 °C 34.0 °F /  1.1 °C 29.66 in /  1004.3 hPa West 10.0 mph /  16.1 km/h 14.0 mph /  22.5 km/h 92 % 0.00 in /  0 mm 0 W/m2
22:27 36.3 °F /  2.4 °C 34.2 °F /  1.2 °C 29.66 in /  1004.3 hPa West 11.0 mph /  17.7 km/h 18.0 mph /  29 km/h 92 % 0.00 in /  0 mm 0 W/m2
22:32 36.3 °F /  2.4 °C 34.2 °F /  1.2 °C 29.66 in /  1004.3 hPa West 8.0 mph /  12.9 km/h 13.0 mph /  20.9 km/h 92 % 0.00 in /  0 mm 0 W/m2
22:37 36.3 °F /  2.4 °C 34.2 °F /  1.2 °C 29.65 in /  1003.9 hPa West 9.0 mph /  14.5 km/h 15.0 mph /  24.1 km/h 92 % 0.00 in /  0 mm 0 W/m2
22:42 36.5 °F /  2.5 °C 34.1 °F /  1.2 °C 29.65 in /  1003.9 hPa West 11.0 mph /  17.7 km/h 16.0 mph /  25.7 km/h 91 % 0.00 in /  0 mm 0 W/m2
22:47 36.7 °F /  2.6 °C 34.3 °F /  1.3 °C 29.66 in /  1004.3 hPa West 9.0 mph /  14.5 km/h 14.0 mph /  22.5 km/h 91 % 0.00 in /  0 mm 0 W/m2
22:52 36.7 °F /  2.6 °C 34.3 °F /  1.3 °C 29.66 in /  1004.3 hPa West 10.0 mph /  16.1 km/h 15.0 mph /  24.1 km/h 91 % 0.00 in /  0 mm 0 W/m2
22:57 36.5 °F /  2.5 °C 34.1 °F /  1.2 °C 29.66 in /  1004.3 hPa West 10.0 mph /  16.1 km/h 16.0 mph /  25.7 km/h 91 % 0.00 in /  0 mm 0 W/m2
23:02 36.3 °F /  2.4 °C 33.9 °F /  1.1 °C 29.66 in /  1004.3 hPa West 10.0 mph /  16.1 km/h 18.0 mph /  29 km/h 91 % 0.00 in /  0 mm 0 W/m2
23:07 36.3 °F /  2.4 °C 33.9 °F /  1.1 °C 29.65 in /  1003.9 hPa West 10.0 mph /  16.1 km/h 16.0 mph /  25.7 km/h 91 % 0.00 in /  0 mm 0 W/m2
23:12 36.3 °F /  2.4 °C 33.9 °F /  1.1 °C 29.65 in /  1003.9 hPa West 11.0 mph /  17.7 km/h 15.0 mph /  24.1 km/h 91 % 0.00 in /  0 mm 0 W/m2
23:17 36.3 °F /  2.4 °C 33.9 °F /  1.1 °C 29.66 in /  1004.3 hPa West 11.0 mph /  17.7 km/h 18.0 mph /  29 km/h 91 % 0.00 in /  0 mm 0 W/m2
23:22 36.5 °F /  2.5 °C 34.1 °F /  1.2 °C 29.66 in /  1004.3 hPa West 12.0 mph /  19.3 km/h 22.0 mph /  35.4 km/h 91 % 0.00 in /  0 mm 0 W/m2
23:27 36.5 °F /  2.5 °C 34.1 °F /  1.2 °C 29.66 in /  1004.3 hPa West 11.0 mph /  17.7 km/h 16.0 mph /  25.7 km/h 91 % 0.00 in /  0 mm 0 W/m2
23:32 36.3 °F /  2.4 °C 33.9 °F /  1.1 °C 29.65 in /  1003.9 hPa West 9.0 mph /  14.5 km/h 15.0 mph /  24.1 km/h 91 % 0.00 in /  0 mm 0 W/m2
23:37 36.3 °F /  2.4 °C 33.9 °F /  1.1 °C 29.65 in /  1003.9 hPa West 10.0 mph /  16.1 km/h 15.0 mph /  24.1 km/h 91 % 0.00 in /  0 mm 0 W/m2
23:42 36.1 °F /  2.3 °C 33.8 °F /  1 °C 29.64 in /  1003.6 hPa West 11.0 mph /  17.7 km/h 14.0 mph /  22.5 km/h 91 % 0.00 in /  0 mm 0 W/m2
23:47 36.3 °F /  2.4 °C 33.9 °F /  1.1 °C 29.64 in /  1003.6 hPa WNW 11.0 mph /  17.7 km/h 21.0 mph /  33.8 km/h 91 % 0.00 in /  0 mm 0 W/m2
23:52 36.5 °F /  2.5 °C 34.1 °F /  1.2 °C 29.64 in /  1003.6 hPa WNW 9.0 mph /  14.5 km/h 15.0 mph /  24.1 km/h 91 % 0.00 in /  0 mm 0 W/m2
23:57 36.3 °F /  2.4 °C 33.9 °F /  1.1 °C 29.64 in /  1003.6 hPa West 9.0 mph /  14.5 km/h 13.0 mph /  20.9 km/h 91 % 0.00 in /  0 mm 0 W/m2
Delerius-Weather
Compliments of Weather Underground - 2.25 mb

Data updates at regular intervals.